CW5102 Weather Reports


Display with metric or nautical units.
time (UTC)temp
F
wind
direction
speed
MPH
gust
MPH
rain 1hr
in
rain 24hr
in
rain mn
in
humidity
%
barometer
mb
20260906165203 74 222 0.0 0.0 0.00 0.00 0.00 100 1018.1
20260906164704 74 109 0.0 0.0 0.00 0.00 0.00 100 1018.2
20260906164203 74 243 0.0 0.0 0.00 0.00 0.00 100 1018.2
20260906163703 74 243 0.0 0.0 0.00 0.00 0.00 100 1018.1
20260906163203 74 243 0.0 0.0 0.00 0.00 0.00 100 1018.2
20260906162203 73 178 0.0 0.0 0.00 0.00 0.00 100 1018.3
20260906161703 73 249 0.0 0.0 0.00 0.00 0.00 100 1018.3
20260906161203 73 237 0.0 0.0 0.00 0.00 0.00 100 1018.4
20260906160703 73 184 0.0 0.0 0.00 0.00 0.00 100 1018.4
20260906160203 73 213 0.0 0.0 0.00 0.00 0.00 100 1018.5
20260906155703 73 235 0.0 0.0 0.00 0.00 0.00 100 1018.4
20260906155203 73 256 0.0 0.0 0.00 0.00 0.00 100 1018.4
20260906154703 73 143 0.0 0.0 0.00 0.00 0.00 100 1018.3
20260906153703 73 277 0.0 0.0 0.00 0.00 0.00 100 1018.4
20260906153203 73 120 0.0 0.0 0.00 0.00 0.00 100 1018.3
20260906152703 73 261 0.0 0.0 0.00 0.00 0.00 100 1018.4
20260906151703 73 142 0.0 0.0 0.00 0.00 0.00 100 1018.5
20260906151203 73 270 0.0 0.0 0.00 0.00 0.00 100 1018.4
20260906150703 73 192 0.0 0.0 0.00 0.00 0.00 100 1018.5
20260906150203 72 156 0.0 0.0 0.00 0.00 0.00 100 1018.4
20260906145703 72 276 0.0 0.0 0.00 0.00 0.00 100 1018.4
20260906145203 72 232 0.0 0.0 0.00 0.00 0.00 100 1018.3
20260906144703 72 237 0.0 0.0 0.00 0.00 0.00 100 1018.2
20260906144203 72 177 0.0 0.0 0.00 0.00 0.00 100 1018.2
20260906143703 72 224 0.0 0.0 0.00 0.00 0.00 100 1018.2
20260906143203 72 244 0.0 0.0 0.00 0.00 0.00 100 1018.2
20260906142703 72 218 0.0 0.0 0.00 0.00 0.00 100 1018.1
20260906142203 72 357 0.0 0.0 0.00 0.00 0.00 100 1018.0
20260906141703 71 357 0.0 0.0 0.00 0.00 0.00 100 1018.1
20260906141204 71 226 0.0 0.0 0.00 0.00 0.00 100 1018.1
20260906140703 71 215 0.0 0.0 0.00 0.00 0.00 100 1018.2
20260906140203 71 202 0.0 0.0 0.00 0.00 0.00 100 1018.3
20260906135703 71 155 0.0 0.0 0.00 0.00 0.00 100 1018.3
20260906135203 70 237 0.0 0.0 0.00 0.00 0.00 100 1018.2
20260906134203 70 223 0.0 0.0 0.00 0.00 0.00 100 1018.0
20260906133704 70 181 0.0 0.0 0.00 0.00 0.00 100 1018.0
20260906133203 70 238 0.0 0.0 0.00 0.00 0.00 100 1017.9
20260906132703 69 152 0.0 0.0 0.00 0.00 0.00 100 1017.9
20260906132203 69 116 0.0 0.0 0.00 0.00 0.00 100 1017.8
20260906131704 69 116 0.0 0.0 0.00 0.00 0.00 100 1017.8
20260906131203 69 260 0.0 0.0 0.00 0.00 0.00 100 1017.9
20260906130703 69 235 0.0 0.0 0.00 0.00 0.00 100 1017.8
20260906130203 69 236 0.0 0.0 0.00 0.00 0.00 100 1017.7
20260906125703 69 236 0.0 0.0 0.00 0.00 0.00 100 1017.7
20260906125203 69 119 0.0 0.0 0.00 0.00 0.00 100 1017.7
20260906124703 68 119 0.0 0.0 0.00 0.00 0.00 100 1017.7
20260906124204 68 119 0.0 0.0 0.00 0.00 0.00 100 1017.6
20260906123703 68 119 0.0 0.0 0.00 0.00 0.00 100 1017.7
20260906123203 68 119 0.0 0.0 0.00 0.00 0.00 100 1017.5
20260906122704 68 108 0.0 0.0 0.00 0.00 0.00 100 1017.5
20260906122204 68 108 0.0 0.0 0.00 0.00 0.00 100 1017.6
20260906121703 68 108 0.0 0.0 0.00 0.00 0.00 100 1017.6
20260906121204 68 108 0.0 0.0 0.00 0.00 0.00 100 1017.6
20260906120703 68 108 0.0 0.0 0.00 0.00 0.00 100 1017.5
20260906120203 68 108 0.0 0.0 0.00 0.00 0.00 100 1017.6
20260906115703 68 108 0.0 0.0 0.00 0.00 0.00 100 1017.5
20260906115203 68 108 0.0 0.0 0.00 0.00 0.00 100 1017.5
20260906114703 68 108 0.0 0.0 0.00 0.00 0.00 100 1017.4
20260906114203 68 108 0.0 0.0 0.00 0.00 0.00 100 1017.3
20260906113703 68 108 0.0 0.0 0.00 0.00 0.00 100 1017.4
20260906113203 68 108 0.0 0.0 0.00 0.00 0.00 100 1017.3
20260906112703 68 108 0.0 0.0 0.00 0.00 0.00 100 1017.3
20260906112203 68 108 0.0 0.0 0.00 0.00 0.00 100 1017.2
20260906111704 68 108 0.0 0.0 0.00 0.00 0.00 100 1017.1
20260906111203 68 108 0.0 0.0 0.00 0.00 0.00 100 1017.1
20260906110703 68 108 0.0 0.0 0.00 0.00 0.00 100 1017.1
20260906110203 68 108 0.0 0.0 0.00 0.00 0.00 100 1017.1
20260906105703 68 108 0.0 0.0 0.00 0.00 0.00 100 1017.0
20260906105203 69 108 0.0 0.0 0.00 0.00 0.00 100 1017.0
20260906104703 69 108 0.0 0.0 0.00 0.00 0.00 100 1017.0
20260906104203 69 108 0.0 0.0 0.00 0.00 0.00 100 1017.1
20260906103703 69 108 0.0 0.0 0.00 0.00 0.00 100 1017.2
20260906102703 69 108 0.0 0.0 0.00 0.00 0.00 100 1017.0
20260906102203 69 108 0.0 0.0 0.00 0.00 0.00 100 1016.9
20260906101703 69 108 0.0 0.0 0.00 0.00 0.00 100 1016.9
20260906100704 69 108 0.0 0.0 0.00 0.00 0.00 100 1017.0
20260906100203 69 108 0.0 0.0 0.00 0.00 0.00 100 1016.9
20260906095704 69 108 0.0 0.0 0.00 0.00 0.00 100 1016.8
20260906095204 69 108 0.0 0.0 0.00 0.00 0.00 100 1016.9
20260906094703 69 108 0.0 0.0 0.00 0.00 0.00 100 1016.8
20260906094203 69 108 0.0 0.0 0.00 0.00 0.00 100 1016.6
20260906093704 69 108 0.0 0.0 0.00 0.00 0.00 100 1016.5
20260906093203 69 108 0.0 0.0 0.00 0.00 0.00 100 1016.4
20260906092704 70 108 0.0 0.0 0.00 0.00 0.00 100 1016.4
20260906092204 70 108 0.0 0.0 0.00 0.00 0.00 100 1016.4
20260906091204 70 109 0.0 0.0 0.00 0.00 0.00 100 1016.2
20260906090204 70 109 0.0 0.0 0.00 0.00 0.00 100 1016.2
20260906085704 70 109 0.0 1.0 0.00 0.00 0.00 100 1016.3
20260906085204 70 109 0.0 1.0 0.00 0.00 0.00 100 1016.4
20260906084703 70 114 0.0 1.0 0.00 0.00 0.00 100 1016.4
20260906084203 70 117 0.0 7.0 0.00 0.00 0.00 100 1016.4
20260906083204 70 86 0.0 7.0 0.00 0.00 0.00 100 1016.3
20260906082202 71 124 0.0 3.0 0.00 0.00 0.00 100 1016.1
20260906081702 71 124 0.0 3.0 0.00 0.00 0.00 100 1016.1
20260906081202 71 124 0.0 0.0 0.00 0.00 0.00 100 1016.0
20260906080702 71 210 0.0 0.0 0.00 0.00 0.00 100 1016.1
20260906080202 71 211 0.0 0.0 0.00 0.00 0.00 100 1016.2
20260906075702 71 167 0.0 0.0 0.00 0.00 0.00 100 1016.0
20260906075202 71 174 0.0 0.0 0.00 0.00 0.00 100 1015.9
20260906074203 71 155 0.0 0.0 0.00 0.00 0.00 100 1016.1
20260906072702 71 96 0.0 0.0 0.00 0.00 0.00 100 1016.2
20260906072202 71 96 0.0 0.0 0.00 0.00 0.00 100 1016.4
20260906071702 71 96 0.0 0.0 0.00 0.00 0.00 100 1016.4
20260906071202 71 96 0.0 0.0 0.00 0.00 0.00 100 1016.5
20260906070702 71 190 0.0 0.0 0.00 0.00 0.00 100 1016.5
20260906070202 72 193 0.0 0.0 0.00 0.00 0.00 100 1016.6
20260906065202 72 193 0.0 0.0 0.00 0.00 0.00 100 1016.7
20260906064702 72 193 0.0 0.0 0.00 0.00 0.00 100 1016.7
20260906064202 72 193 0.0 0.0 0.00 0.00 0.00 100 1016.7
20260906063702 72 193 0.0 0.0 0.00 0.00 0.00 100 1016.8
20260906063202 72 193 0.0 0.0 0.00 0.00 0.00 100 1016.8
20260906062702 72 200 0.0 0.0 0.00 0.00 0.00 100 1016.7
20260906062202 72 205 0.0 0.0 0.00 0.00 0.00 100 1016.7
20260906061703 72 231 0.0 0.0 0.00 0.00 0.00 100 1016.6
20260906060702 72 231 0.0 0.0 0.00 0.00 0.00 100 1016.6
20260906060202 72 231 0.0 0.0 0.00 0.00 0.00 100 1016.7
20260906055702 72 232 0.0 0.0 0.00 0.00 0.00 100 1016.7
20260906055202 72 232 0.0 0.0 0.00 0.00 0.00 100 1016.6
20260906054202 72 233 0.0 0.0 0.00 0.00 0.00 100 1016.6
20260906053702 72 233 0.0 0.0 0.00 0.00 0.00 100 1016.7
20260906053202 72 233 0.0 0.0 0.00 0.00 0.00 100 1016.6
20260906052702 72 233 0.0 0.0 0.00 0.00 0.00 100 1016.6
20260906052202 73 233 0.0 0.0 0.00 0.00 0.00 100 1016.7
20260906051703 73 233 0.0 0.0 0.00 0.00 0.00 100 1016.6
20260906051203 73 233 0.0 0.0 0.00 0.00 0.00 100 1016.7
20260906050702 73 233 0.0 0.0 0.00 0.00 0.00 100 1016.7
20260906050203 73 233 0.0 0.0 0.00 0.00 0.00 100 1016.7
20260906045702 73 233 0.0 0.0 0.00 0.00 0.00 100 1016.8
20260906045202 73 233 0.0 0.0 0.00 0.00 0.00 100 1016.8
20260906044702 73 233 0.0 0.0 0.00 0.00 0.00 100 1016.9
20260906044202 73 233 0.0 0.0 0.00 0.00 0.00 99 1016.9
20260906043703 73 233 0.0 0.0 0.00 0.00 0.00 99 1016.9
20260906043202 73 233 0.0 0.0 0.00 0.00 0.00 99 1016.9
20260906042202 73 233 0.0 0.0 0.00 0.00 0.00 99 1017.0
20260906040702 73 233 0.0 0.0 0.00 0.00 0.00 97 1017.0
20260906035702 73 234 0.0 0.0 0.00 0.00 0.00 96 1017.1
20260906035202 73 234 0.0 0.0 0.00 0.00 0.00 96 1017.1
20260906034703 73 234 0.0 0.0 0.00 0.00 0.00 95 1017.2
20260906034202 73 234 0.0 0.0 0.00 0.00 0.00 94 1017.2
20260906033702 73 234 0.0 0.0 0.00 0.00 0.00 94 1017.1
20260906033202 73 234 0.0 0.0 0.00 0.00 0.00 94 1017.0
20260906032703 73 234 0.0 0.0 0.00 0.00 0.00 93 1017.0
20260906032202 73 234 0.0 0.0 0.00 0.00 0.00 92 1017.1
20260906031702 74 234 0.0 0.0 0.00 0.00 0.00 92 1017.0
20260906031202 74 234 0.0 0.0 0.00 0.00 0.00 91 1017.0
20260906030703 74 234 0.0 0.0 0.00 0.00 0.00 91 1017.0
20260906030202 74 234 0.0 0.0 0.00 0.00 0.00 91 1017.0
20260906025703 74 234 0.0 0.0 0.00 0.00 0.00 91 1016.9
20260906025203 74 234 0.0 0.0 0.00 0.00 0.00 90 1017.0
20260906024202 75 234 0.0 0.0 0.00 0.00 0.00 89 1017.3
20260906023702 75 234 0.0 0.0 0.00 0.00 0.00 89 1017.3
20260906023202 75 234 0.0 0.0 0.00 0.00 0.00 89 1017.2
20260906022703 75 234 0.0 0.0 0.00 0.00 0.00 88 1017.0
20260906022203 75 234 0.0 0.0 0.00 0.00 0.00 88 1017.0
20260906021702 75 234 0.0 0.0 0.00 0.00 0.00 88 1016.9
20260906021202 75 234 0.0 0.0 0.00 0.00 0.00 87 1016.8
20260906020203 75 234 0.0 0.0 0.00 0.00 0.00 86 1016.4
20260906015703 75 234 0.0 0.0 0.00 0.00 0.00 86 1016.2
20260906015203 76 234 0.0 0.0 0.00 0.00 0.00 85 1016.1
20260906014702 76 233 0.0 0.0 0.00 0.00 0.00 85 1016.0
20260906014203 76 234 0.0 0.0 0.00 0.00 0.00 84 1015.8
20260906013703 76 211 0.0 0.0 0.00 0.00 0.00 83 1015.7
20260906013203 76 212 0.0 0.0 0.00 0.00 0.00 83 1015.4
20260906012702 76 212 0.0 0.0 0.00 0.00 0.00 82 1015.3
20260906012202 77 212 0.0 0.0 0.00 0.00 0.00 81 1015.2
20260906011703 77 249 0.0 0.0 0.00 0.00 0.00 80 1015.2
20260906011203 77 246 0.0 0.0 0.00 0.00 0.00 80 1015.1
20260906010203 77 222 0.0 0.0 0.00 0.00 0.00 79 1014.9
20260906005703 77 235 0.0 0.0 0.00 0.00 0.00 78 1014.8
20260906005203 78 228 0.0 0.0 0.00 0.00 0.00 77 1014.7
20260906004702 78 228 0.0 0.0 0.00 0.00 0.00 76 1014.7
20260906004203 78 228 0.0 0.0 0.00 0.00 0.00 76 1014.8
20260906003702 78 244 0.0 0.0 0.00 0.00 0.00 75 1014.8
20260906003203 78 235 0.0 0.0 0.00 0.00 0.00 73 1014.6
20260906002703 78 235 0.0 0.0 0.00 0.00 0.00 73 1014.5
20260906002203 79 237 0.0 1.0 0.00 0.00 0.00 71 1014.4
20260906001702 79 233 0.0 1.0 0.00 0.00 0.00 71 1014.2
20260906001202 79 185 0.0 0.0 0.00 0.00 0.00 70 1014.2
20260906000204 80 159 0.0 1.0 0.00 0.00 0.00 70 1014.4
20260905235702 80 161 0.0 1.0 0.00 0.00 0.00 70 1014.5
20260905235203 80 153 0.0 1.0 0.00 0.00 0.00 70 1014.4
20260905234703 80 145 0.0 2.0 0.00 0.00 0.00 70 1014.5
20260905234202 80 146 0.0 2.0 0.00 0.00 0.00 70 1014.4
20260905233703 80 93 0.0 0.0 0.00 0.00 0.00 70 1014.4
20260905232703 81 127 0.0 0.0 0.00 0.00 0.00 69 1014.3
20260905232202 81 183 0.0 0.0 0.00 0.00 0.00 69 1014.3
20260905231202 81 157 0.0 0.0 0.00 0.00 0.00 68 1014.1
20260905230703 81 158 0.0 0.0 0.00 0.00 0.00 68 1014.0
20260905230203 81 91 0.0 0.0 0.00 0.00 0.00 68 1014.0
20260905225203 81 185 0.0 0.0 0.00 0.00 0.00 68 1013.9
20260905224703 81 167 0.0 0.0 0.00 0.00 0.00 67 1013.8
20260905224202 81 129 0.0 0.0 0.00 0.00 0.00 68 1013.7
20260905223202 81 169 0.0 0.0 0.00 0.00 0.00 70 1013.7
20260905222703 81 161 0.0 0.0 0.00 0.00 0.00 69 1013.8
20260905222203 82 141 0.0 0.0 0.00 0.00 0.00 71 1013.8
20260905221202 82 149 0.0 0.0 0.00 0.00 0.00 71 1013.9
20260905220703 82 116 0.0 0.0 0.00 0.00 0.00 71 1013.9
20260905215703 82 94 0.0 0.0 0.00 0.00 0.00 72 1014.1
20260905215203 82 111 0.0 0.0 0.00 0.00 0.00 73 1014.0
20260905214702 82 127 0.0 0.0 0.00 0.00 0.00 73 1014.1
20260905214203 83 119 0.0 0.0 0.00 0.00 0.00 75 1014.3
20260905213702 83 157 0.0 0.0 0.00 0.00 0.00 75 1014.3
20260905213203 83 108 0.0 0.0 0.00 0.00 0.00 77 1014.2
20260905212702 83 171 0.0 0.0 0.00 0.00 0.00 78 1014.3
20260905212203 83 131 0.0 0.0 0.00 0.00 0.00 79 1014.4
20260905211703 83 115 0.0 0.0 0.00 0.00 0.00 80 1014.4
20260905211203 83 195 0.0 0.0 0.00 0.00 0.00 82 1014.3
20260905210703 83 126 0.0 0.0 0.00 0.00 0.00 84 1014.3
20260905210203 83 108 0.0 0.0 0.00 0.00 0.00 86 1014.3
20260905205702 82 166 0.0 1.0 0.00 0.00 0.00 89 1014.3
20260905205202 82 92 0.0 1.0 0.00 0.00 0.00 90 1014.2
20260905204702 82 21 0.0 1.0 0.00 0.00 0.00 92 1014.3
20260905204203 82 100 0.0 0.0 0.00 0.00 0.00 95 1014.5
20260905203702 82 92 0.0 0.0 0.00 0.00 0.00 99 1014.7
20260905203203 81 134 0.0 0.0 0.00 0.00 0.00 100 1015.0
20260905202704 81 131 0.0 0.0 0.00 0.00 0.00 100 1015.2
20260905202203 80 172 0.0 0.0 0.00 0.00 0.00 100 1015.2
20260905201703 80 142 0.0 0.0 0.00 0.00 0.00 100 1015.2
20260905201203 80 172 0.0 0.0 0.00 0.00 0.00 100 1015.3
20260905200703 79 139 0.0 0.0 0.00 0.00 0.00 100 1015.5
20260905200203 79 101 0.0 0.0 0.00 0.00 0.00 100 1015.6
20260905195703 79 86 0.0 0.0 0.00 0.00 0.00 100 1015.8
20260905195203 79 55 0.0 0.0 0.00 0.00 0.00 100 1015.8
20260905194703 79 191 0.0 0.0 0.00 0.00 0.00 100 1016.0
20260905194202 79 130 0.0 0.0 0.00 0.00 0.00 100 1016.0
20260905193703 79 107 0.0 0.0 0.00 0.00 0.00 100 1016.2
20260905193203 79 107 0.0 0.0 0.00 0.00 0.00 100 1016.1
20260905192703 79 107 0.0 0.0 0.00 0.00 0.00 100 1016.1
20260905192203 79 134 0.0 0.0 0.00 0.00 0.00 100 1016.1
20260905191703 78 134 0.0 0.0 0.00 0.00 0.00 100 1016.3
20260905190702 78 134 0.0 0.0 0.00 0.00 0.00 100 1016.3
20260905190203 78 134 0.0 0.0 0.00 0.00 0.00 100 1016.3
20260905185203 78 134 0.0 0.0 0.00 0.00 0.00 100 1016.3
20260905184703 77 134 0.0 0.0 0.00 0.00 0.00 100 1016.3
20260905184203 77 134 0.0 0.0 0.00 0.00 0.00 100 1016.4
20260905183702 77 134 0.0 0.0 0.00 0.00 0.00 100 1016.3
20260905183203 77 134 0.0 0.0 0.00 0.00 0.00 100 1016.3
20260905182703 76 134 0.0 0.0 0.00 0.00 0.00 100 1016.5
20260905182203 76 134 0.0 0.0 0.00 0.00 0.00 100 1016.6
20260905181703 76 157 0.0 0.0 0.00 0.00 0.00 100 1016.6
20260905181203 76 184 0.0 0.0 0.00 0.00 0.00 100 1016.6
20260905180703 76 167 0.0 0.0 0.00 0.00 0.00 100 1016.7
20260905180203 76 213 0.0 0.0 0.00 0.00 0.00 100 1016.6
20260905175704 76 161 0.0 0.0 0.00 0.00 0.00 100 1016.6
20260905175203 75 161 0.0 0.0 0.00 0.00 0.00 100 1016.8
20260905174702 75 130 0.0 0.0 0.00 0.00 0.00 100 1016.8
20260905174203 75 153 0.0 0.0 0.00 0.00 0.00 100 1016.9
20260905173703 75 153 0.0 0.0 0.00 0.00 0.00 100 1017.0
20260905173203 75 227 0.0 0.0 0.00 0.00 0.00 100 1017.0
20260905172703 74 186 0.0 0.0 0.00 0.00 0.00 100 1017.1
20260905171203 73 127 0.0 0.0 0.00 0.00 0.00 100 1017.2
20260905170703 73 65 0.0 0.0 0.00 0.00 0.00 100 1017.1
20260905165703 72 89 0.0 1.0 0.00 0.00 0.00 100 1017.1